Location: Hungerford
(51.4167°N, 1.5167°W)
Time: 21:20:58
(UTC+00:00)

N. Korean satellite - Visible Passes

Search period start: 30 November 2020 00:00
Search period end: 10 December 2020 00:00
Orbit: 453 x 504 km, 97.2° (Epoch: 29 November)

Date Brightness Start Highest point End Pass type
(mag) Time Alt. Az. Time Alt. Az. Time Alt. Az.
30 Nov 9.8 04:35:11 10° ENE 04:37:09 14° E 04:39:06 10° ESE visible
30 Nov 6.6 06:07:17 10° N 06:10:49 57° WNW 06:14:23 10° SSW visible
30 Nov 6.9 16:47:12 10° S 16:50:36 68° WSW 16:54:05 10° NNW visible
01 Dec 6.8 05:40:55 10° NNE 05:44:31 72° ESE 05:48:10 10° S visible
01 Dec 9.9 17:56:29 10° WSW 17:58:01 12° W 17:59:34 10° WNW visible
02 Dec 8.2 05:14:45 10° NNE 05:18:08 36° E 05:21:32 10° SSE visible
02 Dec 7.8 06:48:27 10° NNW 06:51:18 22° WNW 06:54:10 10° WSW visible
02 Dec 9.2 17:28:39 10° SSW 17:31:27 23° W 17:34:18 10° NW visible
03 Dec 9.3 04:48:55 10° NE 04:51:38 20° E 04:54:22 10° SE visible
03 Dec 7.0 06:21:43 10° N 06:25:08 39° WNW 06:28:34 10° SW visible
03 Dec 7.7 17:01:39 10° S 17:04:58 45° W 17:08:21 10° NNW visible
04 Dec 10.1 04:24:10 10° ENE 04:25:02 11° E 04:25:54 10° E visible
04 Dec 6.4 05:55:13 10° N 05:58:51 78° WNW 06:02:31 10° SSW visible
04 Dec 6.5 16:35:07 10° SSE 16:38:34 86° ENE 16:42:06 10° NNW visible
05 Dec 7.4 05:28:55 10° NNE 05:32:29 52° E 05:36:05 10° S visible
05 Dec 8.1 07:03:07 10° NNW 07:05:29 17° WNW 07:07:52 10° WSW visible
05 Dec 9.7 17:43:32 10° SW 17:45:50 17° W 17:48:11 10° NW visible
06 Dec 8.7 05:02:51 10° NE 05:06:02 27° E 05:09:12 10° SSE visible
06 Dec 7.4 06:36:09 10° N 06:39:20 29° WNW 06:42:31 10° SW visible
06 Dec 8.6 17:16:10 10° SSW 17:19:16 31° W 17:22:28 10° NNW visible
07 Dec 9.7 04:37:14 10° NE 04:39:27 15° E 04:41:39 10° SE visible
07 Dec 6.7 06:09:31 10° N 06:13:05 53° WNW 06:16:41 10° SSW visible
07 Dec 7.0 16:49:22 10° S 16:52:48 64° W 16:56:19 10° NNW visible
08 Dec 6.7 05:43:03 10° NNE 05:46:44 77° ESE 05:50:26 10° S visible
08 Dec 8.4 07:17:55 10° NNW 07:19:33 13° WNW 07:21:11 10° W visible
08 Dec 9.9 17:58:46 10° WSW 18:00:11 12° W 18:01:36 10° WNW visible
09 Dec 8.0 05:16:49 10° NNE 05:20:18 39° E 05:23:46 10° SSE visible
09 Dec 7.8 06:50:35 10° NNW 06:53:25 21° WNW 06:56:16 10° WSW visible
09 Dec 9.2 17:30:44 10° SSW 17:33:32 22° W 17:36:23 10° NW visible
